KKS-1 (KISEKI)

Satellite information

Favourite Embed

Satellite Type and Status

PAYLOADIN ORBIT

Key statistics

Satellite KKS-1 (KISEKI) at a glance.

Uptime

5950

Days in orbit

Revolutions

≈ 14.8

Per day

Orbit

SSO

Sun Synchronous Orbit

Inclination

98.1

Latest

Satellite identification and parameters

Extended collection of information and parameters for KKS-1 (KISEKI).

Object identification

Identified? True

Debris? False

Object name: KKS-1 (KISEKI)

International designator: 2009-002H

Object number (NORAD): 33499

Object ID (CCSDS): 33499

Country: JAPAN (JPN)

Current information (Y/N): Y

RCS size: SMALL

Orbital parameters

Period: 97.197 minutes

Inclination: 98.1221 deg

SMA: 7002.66 km

Apoapsis: 630.606 km

Periapsis: 618.444 km

RAAN: 40.4151 deg

Eccentricy: 0.0008684

Argument of periapsis: 150.4255 deg

Mean anomaly: 209.745 deg

Mean motion: 14.8152226 rev/day

Mean motion (dot): 0.00001973 rev/day2

B* drag term: 0.00025843 1/REarth

Two-line elements (TLE)

Creation date: May 9, 2025, 2:46 a.m.

Reference frame: TEME

Reference center: EARTH

Epoch: May 8, 2025, 6:44 p.m. UTC

TLE line 0: 0 KKS-1 (KISEKI)

TLE line 1: 1 33499U 09002H 25128.78119140 .00001973 00000-0 25843-3 0 9993

TLE line 2: 2 33499 98.1221 40.4151 0008684 150.4255 209.7450 14.81522260876285

Live tracking on map

Real-time ground track for satellite KKS-1 (KISEKI).

In-orbit conjunctions

There are no conjunctions computed for KKS-1 (KISEKI), at the moment. Check back to stay up to date, as we update our databases every day.

Go to all conjunctions

Associated space launch

Japanese Earth observation satellite. Launched with 7 secondary payloads.

KKS-1 (KISEKI) was lifted into orbit during the mission ‘H-IIA 202 | GOSAT’, on board a H-IIA space rocket.

The launch took place on Jan. 23, 2009, 3:54 a.m. from Yoshinobu Launch Complex LP-1.

For more information about the launch, click the button.

Launch to space H-IIA 202 | GOSAT
H-IIA 202 | GOSAT

Agency: N/A

Status: Launch Successful

Launch date: Jan. 23, 2009, 3:54 a.m. UTC

Rocket: H-IIA

Launch pad: Yoshinobu Launch Complex LP-1

Location: Tanegashima Space Center, Japan

...

Latest news about this satellite

There are no fresh news available about this satellite. Check back as we update our databases every day.


Newsletter sign-up

Weekly statistics, charts and insights to help you stay on top of the space industry.